* Astronomy

Members Login
Username 
 
Password 
    Remember Me  
Post Info TOPIC: Asteroid 2015 XB130


L

Posts: 131433
Date:
Asteroid 2015 XB130
Permalink  
 


Orbital elements:
2015 XB130                                          PHA, Earth MOID = 0.0415 AU
Epoch 2016 Jan. 13.0 TT = JDT 2457400.5                 MPC
M  16.21684              (2000.0)            P               Q
n   0.22903799     Peri.  330.29397     +0.94532285     -0.28463810
a   2.6456417      Node    47.15358     +0.32527088     +0.78731737
e   0.6242149      Incl.   12.54121     +0.02373964     +0.54691179
P   4.30           H   21.8           G   0.15           U   6

MPEC 2015 - X106



__________________
Page 1 of 1  sorted by
 
Quick Reply

Please log in to post quick replies.



Create your own FREE Forum
Report Abuse
Powered by ActiveBoard